Weather History for North Wilkesboro, NC

Change the Weather History Date:

Friday, April 5, 2013

  Actual Average Record
Temperature  
Mean Temperature 46 °F -  
Max Temperature 60 °F 66 °F 84 °F (1985)
Min Temperature 33 °F 39 °F 26 °F (1961)
Degree Days  
Heating Degree Days 18    
Moisture  
Dew Point 35 °F    
Average Humidity 70    
Maximum Humidity 100    
Minimum Humidity 29    
Precipitation  
Precipitation 0.02 in - - ()
Sea Level Pressure  
Sea Level Pressure 30.01 in    
Wind  
Wind Speed 2 mph (NW)    
Max Wind Speed 15 mph    
Max Gust Speed 18 mph    
Visibility 8 miles    
Events      
Averages and records for this station are not official NWS values.
T = Trace of Precipitation, MM = Missing Value Source: NWS Daily Summary

Daily Weather History Graph

Daily Weather History Graph

Search for Another Location

Airport:

Trip Planner

Search our weather history database for the weather conditions in past years. The results will help you decide how hot, cold, wet, or windy it might be!

Date:

Astronomy

Apr. 05, 2013 Rise Set
Actual Time 7:04 AM EDT 7:50 PM EDT
Civil Twilight 6:38 AM EDT 8:16 PM EDT
Nautical Twilight 6:07 AM EDT 8:46 PM EDT
Astronomical Twilight 5:36 AM EDT 9:18 PM EDT
Moon 4:02 AM EDT (4/5) 3:20 PM EDT (4/5)
Length of Visible Light 13h 37m
Length of Day
12h 45m
Waning Crescent, 24% of the Moon is Illuminated
Apr 5
Waning Crescent
Apr 10
New
Apr 18
First Quarter
Apr 25
Full
May 2
Last Quarter

Hourly Weather History & Observations

Time (EDT) Temp. Windchill Dew Point Humidity Pressure Visibility Wind Dir Wind Speed Gust Speed Precip Events Conditions
12:15 AM 33.8 °F - 33.8 °F 100% 30.02 in 2.0 mi Calm Calm - N/A   Light Drizzle
12:35 AM 33.8 °F - 33.8 °F 100% 30.02 in 2.0 mi Calm Calm - N/A   Light Drizzle
12:55 AM 33.8 °F - 33.8 °F 100% 30.01 in 2.0 mi Calm Calm - 0.01 in   Overcast
1:15 AM 33.8 °F - 33.8 °F 100% 30.01 in 1.5 mi Calm Calm - N/A   Overcast
1:35 AM 33.8 °F - 33.8 °F 100% 30.01 in 1.5 mi Calm Calm - N/A   Overcast
1:55 AM 33.8 °F - 33.8 °F 100% 30.00 in 1.5 mi Calm Calm - N/A   Overcast
2:15 AM 33.8 °F - 33.8 °F 100% 30.00 in 2.5 mi Calm Calm - N/A   Overcast
2:35 AM 33.8 °F 30.8 °F 33.8 °F 100% 29.99 in 3.0 mi WSW 3.5 mph - N/A   Overcast
2:55 AM 33.8 °F 30.8 °F 33.8 °F 100% 29.98 in 2.5 mi WSW 3.5 mph - N/A   Overcast
3:15 AM 33.8 °F - 33.8 °F 100% 29.98 in 3.0 mi Calm Calm - N/A   Overcast
3:35 AM 33.8 °F 30.8 °F 33.8 °F 100% 29.98 in 3.0 mi SW 3.5 mph - N/A   Overcast
3:55 AM 35.6 °F - 35.6 °F 100% 29.98 in 2.5 mi Calm Calm - N/A   Overcast
4:15 AM 35.6 °F - 35.6 °F 100% 29.98 in 4.0 mi Calm Calm - N/A   Overcast
4:35 AM 35.6 °F - 35.6 °F 100% 29.99 in 4.0 mi Calm Calm - N/A   Overcast
4:55 AM 35.6 °F - 35.6 °F 100% 29.99 in 3.0 mi Calm Calm - N/A   Overcast
5:15 AM 35.6 °F - 35.6 °F 100% 29.99 in 3.0 mi Calm Calm - N/A   Overcast
5:35 AM 35.6 °F - 35.6 °F 100% 29.98 in 3.0 mi Calm Calm - N/A   Overcast
5:55 AM 35.6 °F - 35.6 °F 100% 29.98 in 5.0 mi Calm Calm - N/A   Overcast
6:15 AM 35.6 °F - 35.6 °F 100% 29.97 in 5.0 mi Calm Calm - N/A   Overcast
6:35 AM 35.6 °F - 35.6 °F 100% 29.97 in 4.0 mi Calm Calm - N/A   Overcast
6:55 AM 35.6 °F - 35.6 °F 100% 29.97 in 4.0 mi Calm Calm - N/A   Overcast
7:15 AM 35.6 °F - 35.6 °F 100% 29.98 in 3.0 mi Calm Calm - N/A   Overcast
7:35 AM 35.6 °F - 35.6 °F 100% 29.99 in 3.0 mi Calm Calm - N/A   Overcast
7:55 AM 35.6 °F - 35.6 °F 100% 30.00 in 3.0 mi Calm Calm - N/A   Overcast
8:15 AM 37.4 °F 34.9 °F 37.4 °F 100% 30.01 in 5.0 mi WSW 3.5 mph - N/A   Overcast
8:35 AM 37.4 °F 34.9 °F 37.4 °F 100% 30.01 in 7.0 mi West 3.5 mph - N/A   Overcast
8:55 AM 39.2 °F 37.0 °F 39.2 °F 100% 30.02 in 10.0 mi WNW 3.5 mph - N/A   Overcast
9:15 AM 42.8 °F 40.1 °F 39.2 °F 87% 30.03 in 10.0 mi WNW 4.6 mph - N/A   Overcast
9:35 AM 42.8 °F - 39.2 °F 87% 30.03 in 10.0 mi Calm Calm - N/A   Overcast
9:55 AM 44.6 °F - 41.0 °F 87% 30.03 in 10.0 mi Calm Calm - N/A   Overcast
10:15 AM 44.6 °F - 41.0 °F 87% 30.03 in 10.0 mi Calm Calm - N/A   Overcast
10:35 AM 46.4 °F - 41.0 °F 81% 30.03 in 10.0 mi Calm Calm - N/A   Overcast
10:55 AM 48.2 °F - 42.8 °F 82% 30.04 in 10.0 mi Calm Calm - N/A   Mostly Cloudy
11:15 AM 50.0 °F - 41.0 °F 71% 30.03 in 10.0 mi Calm Calm - N/A   Overcast
11:35 AM 51.8 °F - 42.8 °F 71% 30.03 in 10.0 mi Calm Calm - N/A   Overcast
11:55 AM 53.6 °F - 41.0 °F 62% 30.02 in 10.0 mi West 4.6 mph - N/A   Mostly Cloudy
12:15 PM 55.4 °F - 41.0 °F 58% 30.02 in 10.0 mi NW 5.8 mph - 0.01 in   Scattered Clouds
12:35 PM 55.4 °F - 41.0 °F 58% 30.01 in 10.0 mi North 3.5 mph 18.4 mph 0.01 in   Scattered Clouds
12:55 PM 55.4 °F - 41.0 °F 58% 30.01 in 10.0 mi WNW 6.9 mph - 0.01 in   Clear
1:15 PM 55.4 °F - 39.2 °F 54% 30.00 in 10.0 mi WNW 6.9 mph - N/A   Clear
1:35 PM 57.2 °F - 37.4 °F 48% 30.00 in 10.0 mi NNW 9.2 mph 17.3 mph N/A   Clear
1:55 PM 57.2 °F - 32.0 °F 38% 29.99 in 10.0 mi North 5.8 mph 9.2 mph N/A   Clear
2:15 PM 59.0 °F - 32.0 °F 36% 29.98 in 10.0 mi North 9.2 mph 16.1 mph N/A   Clear
2:35 PM 59.0 °F - 32.0 °F 36% 29.98 in 10.0 mi North 11.5 mph - N/A   Clear
2:55 PM 60.8 °F - 32.0 °F 34% 29.98 in 10.0 mi Calm Calm - N/A   Clear
3:15 PM 60.8 °F - 30.2 °F 31% 29.97 in 10.0 mi North 13.8 mph 17.3 mph N/A   Clear
3:35 PM 60.8 °F - 30.2 °F 31% 29.97 in 10.0 mi North 6.9 mph 18.4 mph N/A   Clear
3:55 PM 60.8 °F - 28.4 °F 29% 29.98 in 10.0 mi North 9.2 mph 16.1 mph N/A   Clear
4:15 PM 60.8 °F - 30.2 °F 31% 29.97 in 10.0 mi North 13.8 mph 18.4 mph N/A   Clear
4:35 PM 60.8 °F - 30.2 °F 31% 29.97 in 10.0 mi North 12.7 mph 18.4 mph N/A   Clear
4:55 PM 60.8 °F - 32.0 °F 34% 29.97 in 10.0 mi North 15.0 mph - N/A   Clear
5:15 PM 60.8 °F - 32.0 °F 34% 29.98 in 10.0 mi NNW 6.9 mph 17.3 mph N/A   Clear
5:35 PM 60.8 °F - 33.8 °F 36% 29.98 in 10.0 mi NNW 8.1 mph - N/A   Clear
5:55 PM 60.8 °F - 32.0 °F 34% 29.99 in 10.0 mi North 12.7 mph 16.1 mph N/A   Clear
6:15 PM 60.8 °F - 32.0 °F 34% 30.00 in 10.0 mi North 10.4 mph - N/A   Clear
6:35 PM 59.0 °F - 33.8 °F 39% 30.01 in 10.0 mi NNE 5.8 mph - N/A   Clear
6:55 PM 59.0 °F - 33.8 °F 39% 30.01 in 10.0 mi NW 4.6 mph - N/A   Clear
7:15 PM 59.0 °F - 33.8 °F 39% 30.01 in 10.0 mi Calm Calm - N/A   Clear
7:35 PM 55.4 °F - 33.8 °F 44% 30.02 in 10.0 mi NW 4.6 mph - N/A   Clear
7:55 PM 55.4 °F - 33.8 °F 44% 30.03 in 10.0 mi Calm Calm - N/A   Clear
8:15 PM 51.8 °F - 33.8 °F 50% 30.04 in 10.0 mi Calm Calm - N/A   Clear
8:35 PM 51.8 °F - 32.0 °F 47% 30.05 in 10.0 mi WNW 3.5 mph - N/A   Clear
8:55 PM 51.8 °F - 32.0 °F 47% 30.06 in 10.0 mi Calm Calm - N/A   Clear
9:15 PM 51.8 °F - 32.0 °F 47% 30.07 in 10.0 mi NW 3.5 mph - N/A   Clear
9:35 PM 51.8 °F - 32.0 °F 47% 30.08 in 10.0 mi Calm Calm - N/A   Clear
9:55 PM 53.6 °F - 32.0 °F 44% 30.09 in 10.0 mi NNW 4.6 mph - N/A   Clear
10:15 PM 50.0 °F - 32.0 °F 50% 30.10 in 10.0 mi Calm Calm - N/A   Clear
10:35 PM 50.0 °F - 32.0 °F 50% 30.10 in 10.0 mi NNW 3.5 mph - N/A   Clear
10:55 PM 46.4 °F - 32.0 °F 57% 30.10 in 10.0 mi Calm Calm - N/A   Clear
11:15 PM 46.4 °F 44.3 °F 33.8 °F 62% 30.10 in 10.0 mi WNW 4.6 mph - N/A   Clear
11:35 PM 42.8 °F - 33.8 °F 70% 30.11 in 10.0 mi Calm Calm - N/A   Clear
11:55 PM 42.8 °F - 33.8 °F 70% 30.11 in 10.0 mi Calm Calm - N/A   Clear